Time,TemperatureF,DewpointF,PressureIn,WindDirection,WindDirectionDegrees,WindSpeedMPH,WindSpeedGustMPH,Humidity,HourlyPrecipIn,Conditions,Clouds,dailyrainin,SoftwareType,DateUTC
2013-02-03 00:02:00,40.0,31.0,30.10,WNW,292,8.0,11.0,69,-99.99,,,-99.99,,2013-02-03 06:02:00,
2013-02-03 00:11:00,39.0,30.0,30.10,WNW,292,7.0,11.0,70,-99.99,,,-99.99,,2013-02-03 06:11:00,
2013-02-03 00:21:00,39.0,30.0,30.11,WNW,292,5.0,8.0,72,-99.99,,,-99.99,,2013-02-03 06:21:00,
2013-02-03 00:32:00,38.0,30.0,30.11,WNW,292,6.0,8.0,73,-99.99,,,-99.99,,2013-02-03 06:32:00,
2013-02-03 00:41:00,38.0,30.0,30.11,WNW,292,6.0,8.0,74,-99.99,,,-99.99,,2013-02-03 06:41:00,
2013-02-03 00:52:00,38.0,30.0,30.11,WNW,292,6.0,8.0,73,-99.99,,,-99.99,,2013-02-03 06:52:00,
2013-02-03 01:01:00,38.0,30.0,30.12,WNW,292,6.0,9.0,73,-99.99,,,-99.99,,2013-02-03 07:01:00,
2013-02-03 01:11:00,39.0,30.0,30.12,NW,315,9.0,13.0,71,-99.99,,,-99.99,,2013-02-03 07:11:00,
2013-02-03 01:21:00,40.0,30.0,30.12,WNW,292,10.0,16.0,68,-99.99,,,-99.99,,2013-02-03 07:21:00,
2013-02-03 01:31:00,39.0,30.0,30.12,WNW,292,9.0,16.0,69,-99.99,,,-99.99,,2013-02-03 07:31:00,
2013-02-03 01:41:00,39.0,30.0,30.13,WNW,292,8.0,13.0,70,-99.99,,,-99.99,,2013-02-03 07:41:00,
2013-02-03 01:52:00,38.0,29.0,30.12,NW,315,9.0,12.0,70,-99.99,,,-99.99,,2013-02-03 07:52:00,
2013-02-03 02:01:00,38.0,29.0,30.12,NW,315,8.0,16.0,69,-99.99,,,-99.99,,2013-02-03 08:01:00,
2013-02-03 02:11:00,38.0,29.0,30.13,WNW,292,9.0,14.0,70,-99.99,,,-99.99,,2013-02-03 08:11:00,
2013-02-03 02:22:00,38.0,29.0,30.13,NW,315,8.0,11.0,71,-99.99,,,-99.99,,2013-02-03 08:22:00,
2013-02-03 02:32:00,37.0,29.0,30.13,WNW,292,8.0,11.0,71,-99.99,,,-99.99,,2013-02-03 08:32:00,
2013-02-03 02:41:00,36.0,29.0,30.13,NW,315,7.0,11.0,73,-99.99,,,-99.99,,2013-02-03 08:41:00,
2013-02-03 02:52:00,36.0,28.0,30.13,WNW,292,6.0,9.0,73,-99.99,,,-99.99,,2013-02-03 08:52:00,
2013-02-03 03:02:00,36.0,28.0,30.13,NW,315,6.0,9.0,74,-99.99,,,-99.99,,2013-02-03 09:02:00,
2013-02-03 03:11:00,36.0,28.0,30.13,WNW,292,6.0,8.0,74,-99.99,,,-99.99,,2013-02-03 09:11:00,
2013-02-03 03:21:00,36.0,28.0,30.13,WNW,292,7.0,12.0,73,-99.99,,,-99.99,,2013-02-03 09:21:00,
2013-02-03 03:31:00,36.0,28.0,30.13,WNW,292,9.0,14.0,72,-99.99,,,-99.99,,2013-02-03 09:31:00,
2013-02-03 03:41:00,36.0,28.0,30.14,WNW,292,9.0,13.0,73,-99.99,,,-99.99,,2013-02-03 09:41:00,
2013-02-03 03:51:00,36.0,28.0,30.14,NW,315,9.0,13.0,72,-99.99,,,-99.99,,2013-02-03 09:51:00,
2013-02-03 04:01:00,36.0,28.0,30.13,WNW,292,7.0,10.0,74,-99.99,,,-99.99,,2013-02-03 10:01:00,
2013-02-03 04:11:00,35.0,28.0,30.13,WNW,292,7.0,9.0,76,-99.99,,,-99.99,,2013-02-03 10:11:00,
2013-02-03 04:21:00,35.0,28.0,30.14,West,270,8.0,12.0,76,-99.99,,,-99.99,,2013-02-03 10:21:00,
2013-02-03 04:31:00,36.0,28.0,30.15,WNW,292,11.0,16.0,73,-99.99,,,-99.99,,2013-02-03 10:31:00,
2013-02-03 04:42:00,36.0,28.0,30.15,WNW,292,11.0,15.0,72,-99.99,,,-99.99,,2013-02-03 10:42:00,
2013-02-03 04:52:00,35.0,28.0,30.16,NW,315,11.0,18.0,74,-99.99,,,-99.99,,2013-02-03 10:52:00,
2013-02-03 05:02:00,36.0,27.0,30.15,NW,315,11.0,16.0,72,-99.99,,,-99.99,,2013-02-03 11:02:00,
2013-02-03 05:11:00,35.0,27.0,30.16,WNW,292,12.0,18.0,72,-99.99,,,-99.99,,2013-02-03 11:11:00,
2013-02-03 05:22:00,35.0,27.0,30.15,WNW,292,10.0,15.0,74,-99.99,,,-99.99,,2013-02-03 11:22:00,
2013-02-03 05:32:00,35.0,27.0,30.16,WNW,292,10.0,14.0,73,-99.99,,,-99.99,,2013-02-03 11:32:00,
2013-02-03 05:41:00,34.0,27.0,30.16,WNW,292,10.0,14.0,74,-99.99,,,-99.99,,2013-02-03 11:41:00,
2013-02-03 05:52:00,34.0,27.0,30.18,NW,315,12.0,18.0,74,-99.99,,,-99.99,,2013-02-03 11:52:00,
2013-02-03 06:02:00,34.0,27.0,30.18,WNW,292,12.0,18.0,74,-99.99,,,-99.99,,2013-02-03 12:02:00,
2013-02-03 06:11:00,34.0,27.0,30.18,WNW,292,10.0,14.0,74,-99.99,,,-99.99,,2013-02-03 12:11:00,
2013-02-03 06:22:00,34.0,26.0,30.17,NW,315,11.0,17.0,74,-99.99,,,-99.99,,2013-02-03 12:22:00,
2013-02-03 06:32:00,33.0,26.0,30.18,WNW,292,7.0,11.0,76,-99.99,,,-99.99,,2013-02-03 12:32:00,
2013-02-03 06:42:00,33.0,26.0,30.17,NW,315,8.0,13.0,76,-99.99,,,-99.99,,2013-02-03 12:42:00,
2013-02-03 06:52:00,33.0,26.0,30.18,West,270,9.0,13.0,76,-99.99,,,-99.99,,2013-02-03 12:52:00,
2013-02-03 07:03:00,33.0,26.0,30.18,WNW,292,9.0,14.0,75,-99.99,,,-99.99,,2013-02-03 13:03:00,
2013-02-03 07:11:00,33.0,25.0,30.19,WNW,292,10.0,15.0,73,-99.99,,,-99.99,,2013-02-03 13:11:00,
2013-02-03 07:21:00,32.0,25.0,30.19,West,270,9.0,14.0,73,-99.99,,,-99.99,,2013-02-03 13:21:00,
2013-02-03 07:32:00,33.0,24.0,30.20,NW,315,10.0,14.0,71,-99.99,,,-99.99,,2013-02-03 13:32:00,
2013-02-03 07:42:00,32.0,24.0,30.20,WNW,292,10.0,13.0,72,-99.99,,,-99.99,,2013-02-03 13:42:00,
2013-02-03 07:52:00,33.0,23.0,30.21,NW,315,12.0,17.0,67,-99.99,,,-99.99,,2013-02-03 13:52:00,
2013-02-03 08:02:00,33.0,23.0,30.22,WNW,292,13.0,19.0,65,-99.99,,,-99.99,,2013-02-03 14:02:00,
2013-02-03 08:11:00,33.0,23.0,30.22,WNW,292,11.0,18.0,64,-99.99,,,-99.99,,2013-02-03 14:11:00,
2013-02-03 08:21:00,34.0,23.0,30.23,NNW,337,10.0,15.0,64,-99.99,,,-99.99,,2013-02-03 14:21:00,
2013-02-03 08:32:00,34.0,23.0,30.23,NNW,337,9.0,13.0,64,-99.99,,,-99.99,,2013-02-03 14:32:00,
2013-02-03 08:42:00,34.0,21.0,30.25,NW,315,10.0,16.0,58,-99.99,,,-99.99,,2013-02-03 14:42:00,
2013-02-03 08:52:00,34.0,20.0,30.24,NW,315,9.0,17.0,57,-99.99,,,-99.99,,2013-02-03 14:52:00,
2013-02-03 09:03:00,34.0,19.0,30.25,NW,315,12.0,20.0,53,-99.99,,,-99.99,,2013-02-03 15:03:00,
2013-02-03 09:11:00,34.0,19.0,30.26,NNW,337,10.0,16.0,53,-99.99,,,-99.99,,2013-02-03 15:11:00,
2013-02-03 09:22:00,34.0,18.0,30.26,NNW,337,12.0,19.0,52,-99.99,,,-99.99,,2013-02-03 15:22:00,
2013-02-03 09:32:00,34.0,18.0,30.26,NNW,337,12.0,19.0,51,-99.99,,,-99.99,,2013-02-03 15:32:00,
2013-02-03 09:41:00,35.0,18.0,30.26,NNW,337,9.0,13.0,51,-99.99,,,-99.99,,2013-02-03 15:41:00,
2013-02-03 09:51:00,35.0,20.0,30.26,NW,315,8.0,13.0,52,-99.99,,,-99.99,,2013-02-03 15:51:00,
2013-02-03 10:02:00,36.0,19.0,30.27,NNW,337,7.0,11.0,50,-99.99,,,-99.99,,2013-02-03 16:02:00,
2013-02-03 10:11:00,35.0,17.0,30.27,NNW,337,8.0,12.0,47,-99.99,,,-99.99,,2013-02-03 16:11:00,
2013-02-03 10:22:00,36.0,16.0,30.27,NW,315,9.0,13.0,45,-99.99,,,-99.99,,2013-02-03 16:22:00,
2013-02-03 10:32:00,36.0,16.0,30.27,NNW,337,7.0,14.0,43,-99.99,,,-99.99,,2013-02-03 16:32:00,
2013-02-03 10:41:00,37.0,15.0,30.27,NNW,337,7.0,13.0,41,-99.99,,,-99.99,,2013-02-03 16:41:00,
2013-02-03 10:52:00,36.0,18.0,30.28,NW,315,9.0,14.0,46,-99.99,,,-99.99,,2013-02-03 16:52:00,
2013-02-03 11:02:00,36.0,16.0,30.27,East,90,7.0,11.0,43,-99.99,,,-99.99,,2013-02-03 17:02:00,
2013-02-03 11:11:00,37.0,14.0,30.27,West,270,7.0,12.0,39,-99.99,,,-99.99,,2013-02-03 17:11:00,
2013-02-03 11:21:00,36.0,13.0,30.26,NNW,337,7.0,11.0,37,-99.99,,,-99.99,,2013-02-03 17:21:00,
2013-02-03 11:32:00,38.0,13.0,30.26,NNW,337,7.0,12.0,36,-99.99,,,-99.99,,2013-02-03 17:32:00,
2013-02-03 11:42:00,38.0,15.0,30.26,NNW,337,6.0,10.0,38,-99.99,,,-99.99,,2013-02-03 17:42:00,
2013-02-03 11:52:00,38.0,12.0,30.25,East,90,6.0,12.0,34,-99.99,,,-99.99,,2013-02-03 17:52:00,
2013-02-03 12:03:00,39.0,13.0,30.25,East,90,6.0,9.0,34,-99.99,,,-99.99,,2013-02-03 18:03:00,
2013-02-03 12:11:00,40.0,13.0,30.24,NE,45,3.0,9.0,33,-99.99,,,-99.99,,2013-02-03 18:11:00,
2013-02-03 12:23:00,40.0,14.0,30.23,East,90,5.0,8.0,34,-99.99,,,-99.99,,2013-02-03 18:23:00,
2013-02-03 12:32:00,41.0,14.0,30.23,NNW,337,4.0,7.0,33,-99.99,,,-99.99,,2013-02-03 18:32:00,
2013-02-03 12:42:00,41.0,15.0,30.21,NE,45,3.0,6.0,34,-99.99,,,-99.99,,2013-02-03 18:42:00,
2013-02-03 12:51:00,40.0,14.0,30.22,NNW,337,5.0,9.0,35,-99.99,,,-99.99,,2013-02-03 18:51:00,
2013-02-03 13:02:00,40.0,14.0,30.21,NNW,337,5.0,9.0,35,-99.99,,,-99.99,,2013-02-03 19:02:00,
2013-02-03 13:11:00,41.0,16.0,30.21,NNW,337,5.0,8.0,35,-99.99,,,-99.99,,2013-02-03 19:11:00,
2013-02-03 13:22:00,40.0,14.0,30.20,NE,45,4.0,7.0,33,-99.99,,,-99.99,,2013-02-03 19:22:00,
2013-02-03 13:32:00,42.0,14.0,30.20,East,90,4.0,8.0,32,-99.99,,,-99.99,,2013-02-03 19:32:00,
2013-02-03 13:41:00,42.0,14.0,30.19,NE,45,2.0,5.0,32,-99.99,,,-99.99,,2013-02-03 19:41:00,
2013-02-03 13:51:00,42.0,15.0,30.18,NNE,22,2.0,4.0,34,-99.99,,,-99.99,,2013-02-03 19:51:00,
2013-02-03 14:01:00,42.0,14.0,30.17,East,90,3.0,6.0,31,-99.99,,,-99.99,,2013-02-03 20:01:00,
2013-02-03 14:12:00,43.0,14.0,30.16,East,90,3.0,6.0,31,-99.99,,,-99.99,,2013-02-03 20:12:00,
2013-02-03 14:21:00,43.0,14.0,30.16,South,180,0.0,-999.0,30,-99.99,,,-99.99,,2013-02-03 20:21:00,
2013-02-03 14:32:00,42.0,13.0,30.14,ESE,112,3.0,6.0,30,-99.99,,,-99.99,,2013-02-03 20:32:00,
2013-02-03 14:42:00,42.0,14.0,30.13,SE,135,4.0,6.0,32,-99.99,,,-99.99,,2013-02-03 20:42:00,
2013-02-03 14:52:00,42.0,14.0,30.12,SE,135,7.0,11.0,33,-99.99,,,-99.99,,2013-02-03 20:52:00,
2013-02-03 15:03:00,41.0,16.0,30.12,SSE,157,5.0,8.0,35,-99.99,,,-99.99,,2013-02-03 21:03:00,
2013-02-03 15:11:00,42.0,15.0,30.13,SSW,202,5.0,8.0,33,-99.99,,,-99.99,,2013-02-03 21:11:00,
2013-02-03 15:21:00,42.0,15.0,30.13,SSW,202,5.0,9.0,33,-99.99,,,-99.99,,2013-02-03 21:21:00,
2013-02-03 15:32:00,43.0,16.0,30.13,SW,225,7.0,11.0,34,-99.99,,,-99.99,,2013-02-03 21:32:00,
2013-02-03 15:42:00,43.0,16.0,30.13,SSW,202,8.0,12.0,34,-99.99,,,-99.99,,2013-02-03 21:42:00,
2013-02-03 15:51:00,43.0,17.0,30.13,SSW,202,7.0,10.0,35,-99.99,,,-99.99,,2013-02-03 21:51:00,
2013-02-03 16:01:00,42.0,19.0,30.12,SSE,157,7.0,10.0,39,-99.99,,,-99.99,,2013-02-03 22:01:00,
2013-02-03 16:11:00,43.0,20.0,30.11,SSE,157,6.0,11.0,41,-99.99,,,-99.99,,2013-02-03 22:11:00,
2013-02-03 16:21:00,43.0,18.0,30.10,SSE,157,7.0,10.0,36,-99.99,,,-99.99,,2013-02-03 22:21:00,
2013-02-03 16:32:00,43.0,19.0,30.09,SSE,157,9.0,12.0,38,-99.99,,,-99.99,,2013-02-03 22:32:00,
2013-02-03 16:41:00,43.0,20.0,30.09,ESE,112,5.0,8.0,39,-99.99,,,-99.99,,2013-02-03 22:41:00,
2013-02-03 16:51:00,44.0,19.0,30.09,South,180,7.0,11.0,37,-99.99,,,-99.99,,2013-02-03 22:51:00,
2013-02-03 17:01:00,44.0,18.0,30.08,SSE,157,6.0,9.0,35,-99.99,,,-99.99,,2013-02-03 23:01:00,
2013-02-03 17:12:00,43.0,18.0,30.07,South,180,6.0,9.0,36,-99.99,,,-99.99,,2013-02-03 23:12:00,
2013-02-03 17:22:00,42.0,19.0,30.07,SSE,157,6.0,10.0,40,-99.99,,,-99.99,,2013-02-03 23:22:00,
2013-02-03 17:32:00,41.0,20.0,30.06,SSE,157,5.0,6.0,43,-99.99,,,-99.99,,2013-02-03 23:32:00,
2013-02-03 17:41:00,40.0,20.0,30.05,SSE,157,5.0,7.0,45,-99.99,,,-99.99,,2013-02-03 23:41:00,
2013-02-03 17:52:00,39.0,20.0,30.04,SSE,157,5.0,7.0,45,-99.99,,,-99.99,,2013-02-03 23:52:00,
2013-02-03 18:01:00,39.0,20.0,30.04,South,180,5.0,7.0,46,-99.99,,,-99.99,,2013-02-04 00:01:00,
2013-02-03 18:11:00,38.0,20.0,30.04,South,180,4.0,6.0,47,-99.99,,,-99.99,,2013-02-04 00:11:00,
2013-02-03 18:22:00,38.0,19.0,30.04,SSE,157,3.0,4.0,45,-99.99,,,-99.99,,2013-02-04 00:22:00,
2013-02-03 18:32:00,38.0,19.0,30.04,South,180,3.0,4.0,46,-99.99,,,-99.99,,2013-02-04 00:32:00,
2013-02-03 18:41:00,37.0,20.0,30.04,SSE,157,3.0,4.0,51,-99.99,,,-99.99,,2013-02-04 00:41:00,
2013-02-03 18:51:00,37.0,19.0,30.03,SE,135,2.0,3.0,48,-99.99,,,-99.99,,2013-02-04 00:51:00,
2013-02-03 19:01:00,37.0,20.0,30.04,South,180,1.0,2.0,49,-99.99,,,-99.99,,2013-02-04 01:01:00,
2013-02-03 19:11:00,37.0,20.0,30.03,SSE,157,2.0,4.0,49,-99.99,,,-99.99,,2013-02-04 01:11:00,
2013-02-03 19:21:00,37.0,20.0,30.03,SE,135,3.0,4.0,50,-99.99,,,-99.99,,2013-02-04 01:21:00,
2013-02-03 19:31:00,38.0,20.0,30.03,South,180,5.0,8.0,47,-99.99,,,-99.99,,2013-02-04 01:31:00,
2013-02-03 19:41:00,38.0,20.0,30.02,SSE,157,5.0,7.0,49,-99.99,,,-99.99,,2013-02-04 01:41:00,
2013-02-03 19:52:00,38.0,21.0,30.02,SSE,157,3.0,5.0,50,-99.99,,,-99.99,,2013-02-04 01:52:00,
2013-02-03 20:02:00,37.0,21.0,30.01,South,180,5.0,7.0,52,-99.99,,,-99.99,,2013-02-04 02:02:00,
2013-02-03 20:11:00,38.0,21.0,30.00,South,180,6.0,9.0,51,-99.99,,,-99.99,,2013-02-04 02:11:00,
2013-02-03 20:21:00,38.0,22.0,30.00,South,180,6.0,10.0,52,-99.99,,,-99.99,,2013-02-04 02:21:00,
2013-02-03 20:31:00,38.0,22.0,29.99,South,180,8.0,11.0,51,-99.99,,,-99.99,,2013-02-04 02:31:00,
2013-02-03 20:41:00,38.0,22.0,29.99,SSE,157,7.0,10.0,52,-99.99,,,-99.99,,2013-02-04 02:41:00,
2013-02-03 20:52:00,38.0,22.0,29.99,South,180,8.0,13.0,52,-99.99,,,-99.99,,2013-02-04 02:52:00,
2013-02-03 21:02:00,38.0,22.0,29.98,South,180,7.0,12.0,51,-99.99,,,-99.99,,2013-02-04 03:02:00,
2013-02-03 21:11:00,38.0,22.0,29.98,South,180,7.0,10.0,51,-99.99,,,-99.99,,2013-02-04 03:11:00,
2013-02-03 21:21:00,39.0,22.0,29.97,SSW,202,8.0,12.0,51,-99.99,,,-99.99,,2013-02-04 03:21:00,
2013-02-03 21:32:00,39.0,22.0,29.97,South,180,7.0,10.0,51,-99.99,,,-99.99,,2013-02-04 03:32:00,
2013-02-03 21:41:00,39.0,23.0,29.96,South,180,7.0,11.0,52,-99.99,,,-99.99,,2013-02-04 03:41:00,
2013-02-03 21:51:00,39.0,23.0,29.96,SSW,202,8.0,11.0,52,-99.99,,,-99.99,,2013-02-04 03:51:00,
2013-02-03 22:01:00,39.0,23.0,29.96,South,180,8.0,12.0,51,-99.99,,,-99.99,,2013-02-04 04:01:00,
2013-02-03 22:11:00,40.0,23.0,29.95,South,180,9.0,13.0,51,-99.99,,,-99.99,,2013-02-04 04:11:00,
2013-02-03 22:21:00,39.0,23.0,29.94,South,180,9.0,13.0,52,-99.99,,,-99.99,,2013-02-04 04:21:00,
2013-02-03 22:32:00,40.0,23.0,29.94,SSW,202,9.0,12.0,52,-99.99,,,-99.99,,2013-02-04 04:32:00,
2013-02-03 22:41:00,39.0,24.0,29.93,SSE,157,8.0,12.0,53,-99.99,,,-99.99,,2013-02-04 04:41:00,
2013-02-03 22:52:00,39.0,24.0,29.93,South,180,8.0,11.0,54,-99.99,,,-99.99,,2013-02-04 04:52:00,
2013-02-03 23:03:00,39.0,24.0,29.92,South,180,8.0,12.0,54,-99.99,,,-99.99,,2013-02-04 05:03:00,
2013-02-03 23:11:00,39.0,24.0,29.92,SSE,157,8.0,11.0,55,-99.99,,,-99.99,,2013-02-04 05:11:00,
2013-02-03 23:22:00,39.0,24.0,29.91,SSW,202,7.0,9.0,56,-99.99,,,-99.99,,2013-02-04 05:22:00,
2013-02-03 23:33:00,39.0,24.0,29.91,South,180,8.0,11.0,56,-99.99,,,-99.99,,2013-02-04 05:33:00,
2013-02-03 23:42:00,39.0,24.0,29.91,South,180,8.0,12.0,55,-99.99,,,-99.99,,2013-02-04 05:42:00,
2013-02-03 23:52:00,39.0,24.0,29.91,South,180,7.0,9.0,55,-99.99,,,-99.99,,2013-02-04 05:52:00,